Regional Weather Roundup
Issued by NWS New Orleans/Baton Rouge, LA

Home | Current Version | Previous Version | Text Only | Print | Product List | Glossary Off
Versions: 1 2 3 4 5 6 7 8 9 10 11 12 13 14 15 16 17 18 19 20 21 22 23 24 25 26 27 28 29 30 31 32 33 34 35 36 37 38 39 40 41 42 43 44 45 46 47 48 49 50

513
ASUS44 KLIX 011110
RWRLIX
NEW ORLEANS REGIONAL WEATHER ROUNDUP
NATIONAL WEATHER SERVICE NEW ORLEANS LA
600 AM CDT MON SEP 01 2014

NOTE: "FAIR" INDICATES FEW OR NO CLOUDS BELOW 12,000 FEET WITH NO
      SIGNIFICANT WEATHER AND/OR OBSTRUCTIONS TO VISIBILITY.
      SKY/WX - SKY CONDITION AND SIGNIFICANT WEATHER.
      TMP - AIR TEMPERATURE.     DP    - DEWPOINT TEMPERATURE.
      RH  - RELATIVE HUMIDITY.   PRES  - PRESSURE.
      HI  - HEAT INDEX.          WCI   - WIND CHILL INDEX.

*  THESE STATIONS ARE NOT NWS OR FAA STATIONS AND ARE NOT UNDER
   NWS QUALITY CONTROL.

LAZ038-040-048-061>063-065>067-069-011200-
SOUTHEAST LOUISIANA

CITY           SKY/WX    TMP DP  RH WIND       PRES   REMARKS
N.O. AUDUBON     N/A     81  79  94 MISG        N/A
N.O. INTL ARPT MOCLDY    80  76  87 CALM      30.02R
N.O. LAKEFRONT PTCLDY    81  77  88 SE6       30.02R
N.O. DOWNTOWN*   N/A     82  73  74 CALM      30.03R
SLIDELL        CLEAR     76  73  91 CALM      30.02R
BATON ROUGE    PTCLDY    75  73  93 CALM      30.01S
BOOTHVILLE     PTCLDY    82  78  88 SE5       30.02R
BELLE CHASSE   PTCLDY    81  75  82 SE6       30.01R
BOGALUSA*        N/A     73  70  90 CALM      30.05R
GALLIANO*      NOT AVBL
NEW ROADS*       N/A     75  75  98 CALM      30.02R FOG
GONZALES*        N/A     75  75 100 CALM      30.01R FOG
HAMMOND*       CLEAR     75  72  88 CALM      30.04R
HOUMA*         PTCLDY    75  72  88 E5        30.01R
PORT FOURCHON* NOT AVBL

$$

MSZ070-080>082-011200-
SOUTHERN MISSISSIPPI

CITY           SKY/WX    TMP DP  RH WIND       PRES   REMARKS
MCCOMB         MOCLDY    74  72  93 NE3       30.05R
GULFPORT       PTCLDY    79  75  87 SE3       30.03R
BILOXI         PTCLDY    82  75  78 SE5       30.04R
PASCAGOULA     PTCLDY    72  72 100 CALM      30.04R FOG

$$

COASTAL OBSERVATIONS
LAKE AND NEARSHORE STATIONS

STATION/POSITION TIME  TEMP    WIND        PRES    WAVE
                       AIR SEA DIR/SP/G            HT/PER
                 (UTC) (F)     (DEG/KT/KT) (MB)    (FT/S)
PASCAGOULA       1100   83     140/  5/  7 1016.6
WAVELAND YACHT   1100   84     140/  9/ 10 1016.1
GRAND ISLE       1100   84 84  150/  6/ 12 1016.8
SOUTHWEST PASS   1100   85 90  140/ 12/ 16 1016.6
NEW CANAL        1100   80 81   CALM  /  3 1016.9
SHELL BEACH      1100   82 80  130/  7/  8 1016.5

OFFSHORE STATIONS

STATION/POSITION TIME  TEMP    WIND        PRES    WAVE
                       AIR SEA DIR/SP/G            HT/PER
                 (UTC) (F)     (DEG/KT/KT) (MB)    (FT/S)
64 S DAUPHIN ISL 1100          VRB 12        N/A

$$




USA.gov is the U.S. government's official web portal to all federal, state and local government web resources and services.